| time (UTC) | temp C | wind direction | speed KPH | gust KPH | rain 1hr cm | rain 24hr cm | rain mn cm | humidity % | barometer mb |
| 20260906191421 | 23 | 309 | 6.4 | 14.5 | 0.00 | 0.10 | 0.10 | 45 | 1021.4 |
| 20260906190915 | 23 | 347 | 6.4 | 12.9 | 0.00 | 0.10 | 0.10 | 45 | 1021.4 |
| 20260906190409 | 23 | 340 | 6.4 | 17.7 | 0.00 | 0.10 | 0.10 | 46 | 1021.3 |
| 20260906185904 | 23 | 314 | 6.4 | 17.7 | 0.00 | 0.10 | 0.10 | 42 | 1021.3 |
| 20260906185400 | 23 | 271 | 4.8 | 14.5 | 0.00 | 0.10 | 0.10 | 44 | 1021.3 |
| 20260906184852 | 23 | 334 | 4.8 | 12.9 | 0.00 | 0.10 | 0.10 | 49 | 1021.3 |
| 20260906184345 | 23 | 298 | 4.8 | 12.9 | 0.00 | 0.10 | 0.10 | 49 | 1021.3 |
| 20260906183839 | 23 | 324 | 4.8 | 14.5 | 0.00 | 0.10 | 0.10 | 52 | 1021.4 |
| 20260906183333 | 23 | 312 | 6.4 | 14.5 | 0.00 | 0.10 | 0.10 | 51 | 1021.6 |
| 20260906182827 | 23 | 321 | 6.4 | 11.3 | 0.00 | 0.10 | 0.10 | 50 | 1021.6 |
| 20260906182321 | 23 | 345 | 6.4 | 14.5 | 0.00 | 0.10 | 0.10 | 50 | 1021.6 |
| 20260906181814 | 23 | 11 | 6.4 | 17.7 | 0.00 | 0.10 | 0.10 | 48 | 1021.7 |
| 20260906181309 | 23 | 50 | 6.4 | 17.7 | 0.00 | 0.10 | 0.10 | 47 | 1021.7 |
| 20260906180257 | 23 | 302 | 4.8 | 9.7 | 0.00 | 0.10 | 0.10 | 48 | 1021.7 |
| 20260906175752 | 23 | 17 | 3.2 | 9.7 | 0.00 | 0.10 | 0.10 | 47 | 1021.8 |
| 20260906175245 | 23 | 38 | 3.2 | 8.0 | 0.00 | 0.10 | 0.10 | 48 | 1021.8 |
| 20260906174739 | 23 | 4 | 3.2 | 8.0 | 0.00 | 0.10 | 0.10 | 48 | 1021.8 |
| 20260906174233 | 23 | 75 | 3.2 | 8.0 | 0.00 | 0.10 | 0.10 | 48 | 1021.8 |
| 20260906173727 | 23 | 37 | 1.6 | 6.4 | 0.00 | 0.10 | 0.10 | 47 | 1021.8 |
| 20260906173221 | 23 | 6 | 1.6 | 6.4 | 0.00 | 0.10 | 0.10 | 47 | 1021.8 |
| 20260906172715 | 23 | 358 | 0.0 | 4.8 | 0.00 | 0.10 | 0.10 | 47 | 1021.6 |
| 20260906172209 | 23 | 39 | 0.0 | 0.0 | 0.00 | 0.10 | 0.10 | 47 | 1021.5 |
| 20260906171703 | 23 | 32 | 0.0 | 0.0 | 0.00 | 0.10 | 0.10 | 45 | 1021.3 |
| 20260906171156 | 23 | 252 | 0.0 | 0.0 | 0.00 | 0.10 | 0.10 | 47 | 1021.3 |
| 20260906170145 | 22 | 252 | 0.0 | 0.0 | 0.00 | 0.10 | 0.10 | 48 | 1021.1 |
| 20260906165133 | 22 | 202 | 0.0 | 0.0 | 0.00 | 0.10 | 0.10 | 49 | 1021.0 |
| 20260906164628 | 22 | 201 | 0.0 | 0.0 | 0.00 | 0.10 | 0.10 | 48 | 1021.0 |
| 20260906164123 | 22 | 202 | 0.0 | 0.0 | 0.00 | 0.10 | 0.10 | 49 | 1021.1 |
| 20260906163615 | 22 | 202 | 0.0 | 0.0 | 0.00 | 0.10 | 0.10 | 49 | 1021.0 |
| 20260906163109 | 22 | 201 | 0.0 | 0.0 | 0.00 | 0.10 | 0.10 | 51 | 1020.9 |
| 20260906162603 | 22 | 206 | 0.0 | 0.0 | 0.00 | 0.10 | 0.10 | 52 | 1020.9 |
| 20260906162057 | 21 | 206 | 0.0 | 0.0 | 0.00 | 0.10 | 0.10 | 54 | 1020.9 |
| 20260906160538 | 21 | 206 | 0.0 | 0.0 | 0.00 | 0.10 | 0.10 | 54 | 1020.8 |
| 20260906155533 | 20 | 221 | 0.0 | 4.8 | 0.00 | 0.10 | 0.10 | 58 | 1020.7 |
| 20260906155032 | 20 | 262 | 0.0 | 3.2 | 0.00 | 0.10 | 0.10 | 59 | 1020.8 |
| 20260906154530 | 20 | 255 | 0.0 | 3.2 | 0.00 | 0.10 | 0.10 | 61 | 1020.7 |
| 20260906154028 | 20 | 224 | 0.0 | 3.2 | 0.00 | 0.10 | 0.10 | 65 | 1020.8 |
| 20260906153526 | 20 | 224 | 0.0 | 3.2 | 0.00 | 0.10 | 0.10 | 65 | 1020.8 |
| 20260906153026 | 19 | 232 | 0.0 | 0.0 | 0.00 | 0.10 | 0.10 | 66 | 1020.8 |
| 20260906152525 | 19 | 173 | 0.0 | 0.0 | 0.00 | 0.10 | 0.10 | 67 | 1020.7 |
| 20260906152024 | 19 | 173 | 0.0 | 0.0 | 0.00 | 0.10 | 0.10 | 67 | 1020.7 |
| 20260906151523 | 18 | 173 | 0.0 | 0.0 | 0.00 | 0.10 | 0.10 | 68 | 1020.7 |
| 20260906150521 | 18 | 173 | 0.0 | 0.0 | 0.00 | 0.10 | 0.10 | 70 | 1020.8 |
| 20260906145018 | 18 | 141 | 0.0 | 0.0 | 0.00 | 0.10 | 0.10 | 69 | 1020.5 |
| 20260906144516 | 18 | 141 | 0.0 | 0.0 | 0.00 | 0.10 | 0.10 | 68 | 1020.5 |
| 20260906144012 | 18 | 194 | 0.0 | 0.0 | 0.00 | 0.10 | 0.10 | 68 | 1020.3 |
| 20260906143514 | 18 | 226 | 0.0 | 0.0 | 0.00 | 0.10 | 0.10 | 70 | 1020.3 |
| 20260906143013 | -17 | 0.0 | 0.0 | 0.00 | 0.10 | 0.10 | 1020.2 | ||
| 20260906142513 | -17 | 0.0 | 0.0 | 0.00 | 0.10 | 0.10 | 1020.1 | ||
| 20260906142009 | -17 | 0.0 | 0.0 | 0.00 | 0.10 | 0.10 | 1020.2 | ||
| 20260906141417 | -17 | 0.0 | 0.0 | 0.00 | 0.10 | 0.10 | 1020.0 | ||
| 20260906140912 | -17 | 0.0 | 0.0 | 0.00 | 0.10 | 0.10 | 1020.0 | ||
| 20260906135411 | -17 | 0.0 | 0.0 | 0.00 | 0.10 | 0.10 | 1020.0 | ||
| 20260906134912 | -17 | 0.0 | 0.0 | 0.00 | 0.10 | 0.10 | 1020.0 | ||
| 20260906134405 | -17 | 0.0 | 0.0 | 0.00 | 0.10 | 0.10 | 1020.0 | ||
| 20260906133815 | -17 | 0.0 | 0.0 | 0.00 | 0.10 | 0.10 | 1019.9 | ||
| 20260906132811 | -17 | 0.0 | 0.0 | 0.00 | 0.10 | 0.10 | 1020.1 | ||
| 20260906132216 | -17 | 0.0 | 0.0 | 0.00 | 0.10 | 0.10 | 1020.1 | ||
| 20260906131713 | -17 | 0.0 | 0.0 | 0.00 | 0.10 | 0.10 | 1020.1 | ||
| 20260906130114 | -17 | 0.0 | 0.0 | 0.00 | 0.10 | 0.10 | 1020.1 | ||
| 20260906125613 | -17 | 0.0 | 0.0 | 0.03 | 0.10 | 0.10 | 1020.0 | ||
| 20260906125106 | -17 | 0.0 | 0.0 | 0.03 | 0.10 | 0.10 | 1019.9 | ||
| 20260906124606 | -17 | 0.0 | 0.0 | 0.03 | 0.10 | 0.10 | 1020.0 | ||
| 20260906124106 | -17 | 195 | 0.0 | 0.0 | 0.03 | 0.10 | 0.10 | 1019.9 | |
| 20260906123608 | -17 | 195 | 0.0 | 12.9 | 0.03 | 0.10 | 0.10 | 1019.9 | |
| 20260906123044 | 19 | 195 | 0.0 | 12.9 | 0.05 | 0.10 | 0.10 | 59 | 1019.8 |
| 20260906122530 | 19 | 196 | 3.2 | 12.9 | 0.05 | 0.10 | 0.10 | 59 | 1019.8 |
| 20260906120523 | 19 | 153 | 6.4 | 12.9 | 0.10 | 0.10 | 0.10 | 58 | 1019.9 |
| 20260906120024 | 18 | 164 | 6.4 | 14.5 | 0.10 | 0.10 | 0.10 | 59 | 1019.7 |
| 20260906115017 | 19 | 212 | 6.4 | 19.3 | 0.08 | 0.08 | 0.08 | 58 | 1019.8 |
| 20260906114511 | 19 | 161 | 6.4 | 16.1 | 0.08 | 0.08 | 0.08 | 57 | 1019.8 |
| 20260906114006 | 19 | 267 | 4.8 | 14.5 | 0.08 | 0.08 | 0.08 | 56 | 1019.8 |
| 20260906113459 | 19 | 205 | 4.8 | 14.5 | 0.08 | 0.08 | 0.08 | 57 | 1019.8 |
| 20260906112954 | 19 | 131 | 3.2 | 14.5 | 0.05 | 0.05 | 0.05 | 59 | 1019.8 |
| 20260906111435 | 21 | 180 | 4.8 | 9.7 | 0.00 | 0.00 | 0.03 | 49 | 1019.9 |
| 20260906110929 | 21 | 189 | 1.6 | 9.7 | 0.00 | 0.00 | 0.00 | 44 | 1019.7 |
| 20260906110423 | 22 | 184 | 1.6 | 3.2 | 0.00 | 0.00 | 0.00 | 45 | 1019.4 |
| 20260906105917 | 22 | 195 | 1.6 | 4.8 | 0.00 | 0.00 | 0.00 | 39 | 1019.2 |
| 20260906105411 | 22 | 186 | 3.2 | 6.4 | 0.00 | 0.00 | 0.00 | 39 | 1019.2 |
| 20260906104904 | 22 | 192 | 3.2 | 6.4 | 0.00 | 0.00 | 0.00 | 40 | 1019.3 |
| 20260906104359 | 22 | 188 | 3.2 | 4.8 | 0.00 | 0.00 | 0.00 | 41 | 1019.3 |
| 20260906103853 | 22 | 148 | 3.2 | 6.4 | 0.00 | 0.00 | 0.00 | 39 | 1019.2 |
| 20260906102841 | 22 | 156 | 3.2 | 4.8 | 0.00 | 0.00 | 0.00 | 38 | 1019.2 |
| 20260906101835 | 23 | 165 | 1.6 | 4.8 | 0.00 | 0.00 | 0.00 | 37 | 1019.1 |
| 20260906101332 | 23 | 171 | 3.2 | 8.0 | 0.00 | 0.00 | 0.00 | 37 | 1019.2 |
| 20260906100832 | 23 | 210 | 3.2 | 8.0 | 0.00 | 0.00 | 0.00 | 36 | 1019.1 |
| 20260906100334 | 23 | 191 | 4.8 | 12.9 | 0.00 | 0.00 | 0.00 | 33 | 1019.0 |
| 20260906095831 | 23 | 141 | 4.8 | 12.9 | 0.00 | 0.00 | 0.00 | 33 | 1018.9 |
| 20260906095330 | 23 | 141 | 4.8 | 9.7 | 0.00 | 0.00 | 0.00 | 33 | 1019.0 |
| 20260906094832 | 23 | 159 | 6.4 | 11.3 | 0.00 | 0.00 | 0.00 | 33 | 1019.0 |
| 20260906094330 | 23 | 195 | 6.4 | 12.9 | 0.00 | 0.00 | 0.00 | 32 | 1018.9 |
| 20260906093830 | 23 | 160 | 6.4 | 12.9 | 0.00 | 0.00 | 0.00 | 33 | 1018.9 |
| 20260906093331 | 23 | 193 | 4.8 | 14.5 | 0.00 | 0.00 | 0.00 | 33 | 1018.8 |
| 20260906091830 | 23 | 192 | 6.4 | 12.9 | 0.00 | 0.00 | 0.00 | 33 | 1018.9 |
| 20260906091333 | 23 | 183 | 6.4 | 12.9 | 0.00 | 0.00 | 0.00 | 33 | 1018.9 |
| 20260906090831 | 23 | 157 | 4.8 | 11.3 | 0.00 | 0.00 | 0.00 | 33 | 1018.9 |
| 20260906090331 | 23 | 183 | 6.4 | 11.3 | 0.00 | 0.00 | 0.00 | 33 | 1019.0 |
| 20260906085832 | 23 | 186 | 4.8 | 9.7 | 0.00 | 0.00 | 0.00 | 33 | 1019.0 |
| 20260906085325 | 23 | 166 | 4.8 | 17.7 | 0.00 | 0.00 | 0.00 | 33 | 1019.0 |
| 20260906084819 | 23 | 113 | 4.8 | 17.7 | 0.00 | 0.00 | 0.00 | 33 | 1019.0 |
| 20260906083810 | 23 | 191 | 6.4 | 12.9 | 0.00 | 0.00 | 0.00 | 33 | 1019.1 |
| 20260906083301 | 23 | 195 | 4.8 | 8.0 | 0.00 | 0.00 | 0.00 | 33 | 1019.1 |
| 20260906082755 | 23 | 169 | 4.8 | 11.3 | 0.00 | 0.00 | 0.00 | 33 | 1019.2 |
| 20260906082249 | 23 | 164 | 4.8 | 11.3 | 0.00 | 0.00 | 0.00 | 33 | 1019.3 |
| 20260906081743 | 23 | 155 | 4.8 | 11.3 | 0.00 | 0.00 | 0.00 | 33 | 1019.3 |
| 20260906081238 | 23 | 189 | 4.8 | 11.3 | 0.00 | 0.00 | 0.00 | 33 | 1019.2 |
| 20260906080731 | 23 | 200 | 6.4 | 11.3 | 0.00 | 0.00 | 0.00 | 33 | 1019.3 |
| 20260906075718 | 23 | 139 | 6.4 | 12.9 | 0.00 | 0.00 | 0.00 | 32 | 1019.2 |
| 20260906075213 | 23 | 144 | 4.8 | 12.9 | 0.00 | 0.00 | 0.00 | 32 | 1019.2 |
| 20260906074707 | 23 | 179 | 6.4 | 11.3 | 0.00 | 0.00 | 0.00 | 32 | 1019.3 |
| 20260906074201 | 23 | 211 | 6.4 | 11.3 | 0.00 | 0.00 | 0.00 | 32 | 1019.3 |
| 20260906073655 | 23 | 158 | 4.8 | 11.3 | 0.00 | 0.00 | 0.00 | 32 | 1019.4 |
| 20260906073149 | 23 | 207 | 6.4 | 11.3 | 0.00 | 0.00 | 0.00 | 32 | 1019.6 |
| 20260906072644 | 23 | 169 | 6.4 | 9.7 | 0.00 | 0.00 | 0.00 | 32 | 1019.6 |
| 20260906072137 | 23 | 214 | 6.4 | 11.3 | 0.00 | 0.00 | 0.00 | 32 | 1019.7 |
| 20260906071634 | 23 | 182 | 6.4 | 11.3 | 0.00 | 0.00 | 0.00 | 32 | 1019.7 |
| 20260906071135 | 23 | 210 | 4.8 | 9.7 | 0.00 | 0.00 | 0.00 | 32 | 1019.7 |
| 20260906070634 | 23 | 179 | 4.8 | 9.7 | 0.00 | 0.00 | 0.00 | 32 | 1019.7 |
| 20260906065634 | 23 | 219 | 3.2 | 8.0 | 0.00 | 0.00 | 0.00 | 32 | 1019.6 |
| 20260906065136 | 23 | 162 | 4.8 | 9.7 | 0.00 | 0.00 | 0.00 | 32 | 1019.6 |
| 20260906064636 | 23 | 184 | 4.8 | 9.7 | 0.00 | 0.00 | 0.00 | 32 | 1019.6 |
| 20260906064134 | 23 | 153 | 3.2 | 9.7 | 0.00 | 0.00 | 0.00 | 32 | 1019.6 |
| 20260906063634 | 23 | 198 | 1.6 | 6.4 | 0.00 | 0.00 | 0.00 | 32 | 1019.6 |
| 20260906063132 | 23 | 194 | 0.0 | 3.2 | 0.00 | 0.00 | 0.00 | 32 | 1019.6 |
| 20260906062634 | 23 | 181 | 1.6 | 6.4 | 0.00 | 0.00 | 0.00 | 32 | 1019.6 |
| 20260906062131 | 23 | 179 | 3.2 | 8.0 | 0.00 | 0.00 | 0.00 | 32 | 1019.6 |
| 20260906061630 | 23 | 217 | 4.8 | 12.9 | 0.00 | 0.00 | 0.00 | 31 | 1019.4 |
| 20260906061130 | 23 | 207 | 4.8 | 12.9 | 0.00 | 0.00 | 0.00 | 31 | 1019.3 |
| 20260906060629 | 23 | 195 | 4.8 | 12.9 | 0.00 | 0.00 | 0.00 | 31 | 1019.4 |
| 20260906055627 | 23 | 165 | 4.8 | 9.7 | 0.00 | 0.00 | 0.00 | 31 | 1019.4 |
| 20260906055129 | 23 | 189 | 4.8 | 9.7 | 0.00 | 0.00 | 0.00 | 32 | 1019.6 |
| 20260906054623 | 23 | 186 | 1.6 | 9.7 | 0.00 | 0.00 | 0.00 | 33 | 1019.6 |
| 20260906054117 | 22 | 165 | 1.6 | 4.8 | 0.00 | 0.00 | 0.00 | 33 | 1019.4 |
| 20260906053611 | 22 | 141 | 1.6 | 3.2 | 0.00 | 0.00 | 0.00 | 34 | 1019.6 |
| 20260906053105 | 22 | 187 | 1.6 | 3.2 | 0.00 | 0.00 | 0.00 | 32 | 1019.4 |
| 20260906052559 | 22 | 187 | 0.0 | 3.2 | 0.00 | 0.00 | 0.00 | 32 | 1019.6 |
| 20260906052057 | 23 | 176 | 0.0 | 3.2 | 0.00 | 0.00 | 0.00 | 31 | 1019.4 |
| 20260906051055 | 23 | 189 | 3.2 | 4.8 | 0.00 | 0.00 | 0.00 | 30 | 1019.4 |
| 20260906050555 | 23 | 177 | 3.2 | 6.4 | 0.00 | 0.00 | 0.00 | 31 | 1019.4 |
| 20260906050052 | 23 | 200 | 3.2 | 6.4 | 0.00 | 0.00 | 0.00 | 30 | 1019.3 |
| 20260906045050 | 23 | 192 | 1.6 | 4.8 | 0.00 | 0.00 | 0.00 | 29 | 1019.6 |
| 20260906044551 | 24 | 158 | 3.2 | 8.0 | 0.00 | 0.00 | 0.00 | 29 | 1019.6 |
| 20260906044050 | 24 | 214 | 3.2 | 8.0 | 0.00 | 0.00 | 0.00 | 29 | 1019.7 |
| 20260906043549 | 24 | 208 | 4.8 | 11.3 | 0.00 | 0.00 | 0.00 | 28 | 1019.7 |
| 20260906043048 | 24 | 168 | 6.4 | 12.9 | 0.00 | 0.00 | 0.00 | 28 | 1019.7 |
| 20260906042547 | 24 | 149 | 6.4 | 12.9 | 0.00 | 0.00 | 0.00 | 28 | 1019.7 |
| 20260906042049 | 24 | 180 | 4.8 | 12.9 | 0.00 | 0.00 | 0.00 | 28 | 1019.6 |
| 20260906041546 | 25 | 175 | 4.8 | 12.9 | 0.00 | 0.00 | 0.00 | 27 | 1019.6 |
| 20260906041050 | 25 | 191 | 4.8 | 16.1 | 0.00 | 0.00 | 0.00 | 27 | 1019.6 |
| 20260906040546 | 25 | 158 | 6.4 | 16.1 | 0.00 | 0.00 | 0.00 | 27 | 1019.6 |
| 20260906040047 | 25 | 169 | 6.4 | 12.9 | 0.00 | 0.00 | 0.00 | 27 | 1019.6 |
| 20260906035547 | 25 | 150 | 4.8 | 12.9 | 0.00 | 0.00 | 0.00 | 26 | 1019.4 |
| 20260906035045 | 25 | 131 | 3.2 | 9.7 | 0.00 | 0.00 | 0.00 | 26 | 1019.4 |
| 20260906034047 | 25 | 103 | 4.8 | 11.3 | 0.00 | 0.00 | 0.00 | 26 | 1019.4 |
| 20260906033543 | 25 | 172 | 4.8 | 11.3 | 0.00 | 0.00 | 0.00 | 26 | 1019.3 |
| 20260906033045 | 25 | 166 | 4.8 | 12.9 | 0.00 | 0.00 | 0.00 | 26 | 1019.3 |
| 20260906032544 | 25 | 138 | 4.8 | 12.9 | 0.00 | 0.00 | 0.00 | 25 | 1019.3 |
| 20260906032041 | 25 | 122 | 3.2 | 9.7 | 0.00 | 0.00 | 0.00 | 25 | 1019.3 |
| 20260906031542 | 25 | 152 | 3.2 | 9.7 | 0.00 | 0.00 | 0.00 | 25 | 1019.2 |
| 20260906031042 | 25 | 185 | 4.8 | 11.3 | 0.00 | 0.00 | 0.00 | 25 | 1019.2 |
| 20260906030544 | 25 | 202 | 4.8 | 12.9 | 0.00 | 0.00 | 0.00 | 25 | 1019.2 |
| 20260906030042 | 25 | 159 | 4.8 | 12.9 | 0.00 | 0.00 | 0.00 | 25 | 1019.1 |
| 20260906025542 | 25 | 207 | 4.8 | 12.9 | 0.00 | 0.00 | 0.00 | 25 | 1019.0 |
| 20260906025042 | 25 | 104 | 4.8 | 12.9 | 0.00 | 0.00 | 0.00 | 25 | 1019.0 |
| 20260906024543 | 25 | 186 | 4.8 | 12.9 | 0.00 | 0.00 | 0.00 | 25 | 1018.9 |
| 20260906023543 | 25 | 162 | 1.6 | 6.4 | 0.00 | 0.00 | 0.00 | 25 | 1018.9 |
| 20260906022541 | 25 | 219 | 1.6 | 9.7 | 0.00 | 0.00 | 0.00 | 24 | 1018.8 |
| 20260906022042 | 26 | 161 | 1.6 | 9.7 | 0.00 | 0.00 | 0.00 | 24 | 1018.8 |
| 20260906021535 | 26 | 164 | 3.2 | 9.7 | 0.00 | 0.00 | 0.00 | 24 | 1018.8 |
| 20260906021030 | 26 | 232 | 3.2 | 14.5 | 0.00 | 0.00 | 0.00 | 23 | 1018.6 |
| 20260906020529 | 26 | 214 | 4.8 | 16.1 | 0.00 | 0.00 | 0.00 | 23 | 1018.6 |
| 20260906015526 | 26 | 134 | 6.4 | 17.7 | 0.00 | 0.00 | 0.00 | 23 | 1018.8 |
| 20260906014524 | 26 | 96 | 3.2 | 12.9 | 0.00 | 0.00 | 0.00 | 22 | 1018.6 |
| 20260906014027 | 27 | 197 | 4.8 | 12.9 | 0.00 | 0.00 | 0.00 | 22 | 1018.6 |
| 20260906013524 | 27 | 195 | 3.2 | 12.9 | 0.00 | 0.00 | 0.00 | 21 | 1018.6 |
| 20260906013024 | 27 | 98 | 1.6 | 11.3 | 0.00 | 0.00 | 0.00 | 21 | 1018.6 |
| 20260906012021 | 28 | 155 | 6.4 | 19.3 | 0.00 | 0.00 | 0.00 | 19 | 1018.8 |
| 20260906011020 | 28 | 203 | 6.4 | 17.7 | 0.00 | 0.00 | 0.00 | 19 | 1018.8 |
| 20260906010519 | 28 | 146 | 9.7 | 25.7 | 0.00 | 0.00 | 0.00 | 19 | 1018.8 |
| 20260906005021 | 30 | 187 | 6.4 | 16.1 | 0.00 | 0.00 | 0.00 | 17 | 1018.8 |
| 20260906004520 | 30 | 81 | 4.8 | 14.5 | 0.00 | 0.00 | 0.00 | 17 | 1018.6 |
| 20260906004013 | 30 | 163 | 6.4 | 20.9 | 0.00 | 0.00 | 0.00 | 18 | 1018.6 |
| 20260906003508 | 30 | 208 | 4.8 | 20.9 | 0.00 | 0.00 | 0.00 | 17 | 1018.8 |
| 20260906003002 | 30 | 134 | 4.8 | 16.1 | 0.00 | 0.00 | 0.00 | 17 | 1018.6 |
| 20260906002456 | 30 | 255 | 6.4 | 16.1 | 0.00 | 0.00 | 0.00 | 17 | 1018.6 |
| 20260906001950 | 30 | 260 | 8.0 | 19.3 | 0.00 | 0.00 | 0.00 | 17 | 1018.9 |
| 20260906001444 | 30 | 166 | 8.0 | 20.9 | 0.00 | 0.00 | 0.00 | 17 | 1018.8 |
| 20260905235420 | 31 | 225 | 8.0 | 20.9 | 0.00 | 0.00 | 0.00 | 17 | 1018.5 |
| 20260905234914 | 30 | 103 | 8.0 | 20.9 | 0.00 | 0.00 | 0.00 | 16 | 1018.4 |
| 20260905233903 | 30 | 115 | 4.8 | 17.7 | 0.00 | 0.00 | 0.00 | 17 | 1018.9 |
| 20260905233357 | 30 | 274 | 4.8 | 17.7 | 0.00 | 0.00 | 0.00 | 17 | 1018.9 |
| 20260905232850 | 30 | 91 | 4.8 | 16.1 | 0.00 | 0.00 | 0.00 | 17 | 1018.8 |
| 20260905232344 | 29 | 258 | 6.4 | 19.3 | 0.00 | 0.00 | 0.00 | 18 | 1018.8 |
| 20260905231838 | 29 | 179 | 6.4 | 19.3 | 0.00 | 0.00 | 0.00 | 17 | 1018.9 |
| 20260905231332 | 30 | 268 | 6.4 | 20.9 | 0.00 | 0.00 | 0.00 | 17 | 1018.8 |
| 20260905230826 | 30 | 292 | 6.4 | 20.9 | 0.00 | 0.00 | 0.00 | 17 | 1018.6 |
| 20260905230319 | 30 | 215 | 6.4 | 17.7 | 0.00 | 0.00 | 0.00 | 17 | 1018.6 |
| 20260905225814 | 30 | 142 | 4.8 | 16.1 | 0.00 | 0.00 | 0.00 | 16 | 1018.6 |
| 20260905225308 | 30 | 226 | 6.4 | 20.9 | 0.00 | 0.00 | 0.00 | 17 | 1018.5 |
| 20260905224803 | 30 | 310 | 9.7 | 22.5 | 0.00 | 0.00 | 0.00 | 18 | 1018.5 |
| 20260905224256 | 30 | 283 | 11.3 | 22.5 | 0.00 | 0.00 | 0.00 | 16 | 1018.6 |
| 20260905223750 | 30 | 264 | 9.7 | 22.5 | 0.00 | 0.00 | 0.00 | 16 | 1018.8 |
| 20260905223244 | 31 | 250 | 6.4 | 17.7 | 0.00 | 0.00 | 0.00 | 15 | 1018.8 |
| 20260905222232 | 31 | 281 | 6.4 | 17.7 | 0.00 | 0.00 | 0.00 | 15 | 1019.0 |
| 20260905221726 | 31 | 238 | 9.7 | 25.7 | 0.00 | 0.00 | 0.00 | 16 | 1018.9 |
| 20260905221221 | 30 | 304 | 12.9 | 27.4 | 0.00 | 0.00 | 0.00 | 15 | 1018.6 |
| 20260905220714 | 31 | 295 | 11.3 | 30.6 | 0.00 | 0.00 | 0.00 | 15 | 1018.6 |
| 20260905220208 | 31 | 239 | 8.0 | 30.6 | 0.00 | 0.00 | 0.00 | 15 | 1018.8 |
| 20260905215156 | 31 | 238 | 9.7 | 29.0 | 0.00 | 0.00 | 0.00 | 15 | 1018.9 |
| 20260905214651 | 30 | 319 | 11.3 | 22.5 | 0.00 | 0.00 | 0.00 | 15 | 1018.6 |
| 20260905214144 | 30 | 223 | 11.3 | 24.1 | 0.00 | 0.00 | 0.00 | 15 | 1019.2 |
| 20260905213638 | 31 | 229 | 8.0 | 25.7 | 0.00 | 0.00 | 0.00 | 14 | 1019.3 |
| 20260905213132 | 31 | 290 | 6.4 | 25.7 | 0.00 | 0.00 | 0.00 | 15 | 1019.3 |
| 20260905212626 | 31 | 278 | 9.7 | 25.7 | 0.00 | 0.00 | 0.00 | 15 | 1019.3 |
| 20260905212121 | 30 | 250 | 12.9 | 33.8 | 0.00 | 0.00 | 0.00 | 15 | 1019.3 |
| 20260905211614 | 31 | 190 | 9.7 | 33.8 | 0.00 | 0.00 | 0.00 | 15 | 1019.1 |
| 20260905211108 | 31 | 225 | 8.0 | 22.5 | 0.00 | 0.00 | 0.00 | 14 | 1019.2 |
| 20260905210602 | 31 | 248 | 6.4 | 20.9 | 0.00 | 0.00 | 0.00 | 14 | 1019.1 |
| 20260905205550 | 31 | 255 | 8.0 | 22.5 | 0.00 | 0.00 | 0.00 | 15 | 1019.3 |
| 20260905204538 | 30 | 257 | 9.7 | 29.0 | 0.00 | 0.00 | 0.00 | 15 | 1019.4 |
| 20260905204032 | 30 | 193 | 8.0 | 27.4 | 0.00 | 0.00 | 0.00 | 15 | 1019.6 |
| 20260905203526 | 30 | 321 | 8.0 | 20.9 | 0.00 | 0.00 | 0.00 | 15 | 1019.4 |
| 20260905203020 | 29 | 240 | 9.7 | 25.7 | 0.00 | 0.00 | 0.00 | 17 | 1019.7 |
| 20260905202515 | 30 | 157 | 11.3 | 29.0 | 0.00 | 0.00 | 0.00 | 16 | 1019.8 |
| 20260905202008 | 30 | 88 | 8.0 | 29.0 | 0.00 | 0.00 | 0.00 | 15 | 1019.7 |
| 20260905201503 | 31 | 253 | 8.0 | 25.7 | 0.00 | 0.00 | 0.00 | 15 | 1019.6 |
| 20260905200956 | 30 | 111 | 9.7 | 22.5 | 0.00 | 0.00 | 0.00 | 15 | 1019.7 |
| 20260905195944 | 30 | 214 | 9.7 | 25.7 | 0.00 | 0.00 | 0.00 | 16 | 1019.8 |
| 20260905195438 | 29 | 103 | 9.7 | 25.7 | 0.00 | 0.00 | 0.00 | 17 | 1020.0 |
| 20260905194933 | 30 | 203 | 6.4 | 20.9 | 0.00 | 0.00 | 0.00 | 16 | 1020.0 |
| 20260905194426 | 30 | 87 | 4.8 | 19.3 | 0.00 | 0.00 | 0.00 | 16 | 1019.9 |
| 20260905193414 | 30 | 217 | 4.8 | 17.7 | 0.00 | 0.00 | 0.00 | 16 | 1020.0 |
| 20260905192908 | 30 | 229 | 6.4 | 29.0 | 0.00 | 0.00 | 0.00 | 16 | 1020.0 |
| 20260905192402 | 30 | 177 | 8.0 | 29.0 | 0.00 | 0.00 | 0.00 | 16 | 1020.0 |